Anza Borrego Desert State Park, California Weather observations

Data are for 10 minute period ending at time listed.
 Day   Time   Solar   Ave.   Ave.  Ave.  Vector  Max.   Baro.   Total    
  of    of     Rad.   Air    Rel.  Wind   Wind   Wind  Press.  Precip.   
Year   Day            Temp.  Hum.  Speed  Dir.   Gust                    
2026   (PST)  Kw/m2    F      %     mph   deg.    mph    mb.     in.     
-------------------------------------------------------------------------
 126    0:00   0.00   56.0    51    3.0   252     5.3   985.1    0.00 
 126    0:10   0.00   56.7    50    5.4   237     6.6   985.0    0.00 
 126    0:20   0.00   56.1    51    6.3   241     7.2   985.0    0.00 
 126    0:30   0.00   55.0    53    5.0   237     7.2   985.0    0.00 
 126    0:40   0.00   56.1    51    3.4   243     5.8   984.9    0.00 
 126    0:50   0.00   55.7    52    2.5   206     3.4   984.8    0.00 
 126    1:00   0.00   55.3    52    2.6   220     3.1   984.7    0.00 
 126    1:10   0.00   54.8    52    2.6   227     5.1   984.7    0.00 
 126    1:20   0.00   54.2    52    1.5   239     3.8   984.7    0.00 
 126    1:30   0.00   53.8    53    1.8   281     4.7   984.7    0.00 
 126    1:40   0.00   55.1    52    1.8   210     3.1   984.7    0.00 
 126    1:50   0.00   54.3    52    3.4   218     4.8   984.6    0.00 
 126    2:00   0.00   53.5    53    4.0   228     5.3   984.6    0.00 
 126    2:10   0.00   53.7    53    2.1   291     3.3   984.6    0.00 
 126    2:20   0.00   54.7    55    3.2   346     4.4   984.7    0.00 
 126    2:30   0.00   55.5    54    2.0   311     2.8   984.7    0.00 
 126    2:40   0.00   54.2    55    2.6   258     4.9   984.7    0.00 
 126    2:50   0.00   52.5    57    4.1   257     4.7   984.7    0.00 
 126    3:00   0.00   52.7    55    3.0   295     3.9   984.7    0.00 
 126    3:10   0.00   53.5    56    4.1   325     5.3   984.8    0.00 
 126    3:20   0.00   54.1    55    2.9   300     3.5   984.8    0.00 
 126    3:30   0.00   52.5    57    3.4   257     4.6   984.8    0.00 
 126    3:40   0.00   52.3    57    3.0   266     4.1   984.9    0.00 
 126    3:50   0.00   52.0    57    1.8   251     2.8   984.9    0.00 
 126    4:00   0.00   51.9    57    4.3   220     5.5   984.9    0.00 
 126    4:10   0.00   51.4    59    5.0   230     6.1   985.0    0.00 
 126    4:20   0.00   51.9    57    5.8   246     6.7   985.0    0.00 
 126    4:30   0.00   53.0    54    5.0   256     6.1   985.0    0.00 
 126    4:40   0.00   52.8    54    3.5   254     5.0   985.1    0.00 
 126    4:50   0.00   51.9    56    2.9   246     3.5   985.2    0.00 
 126    5:00   0.01   51.3    56    2.8   256     3.9   985.3    0.00 
 126    5:10   0.01   52.9    54    3.6   240     4.5   985.4    0.00 
 126    5:20   0.03   54.0    52    3.3   248     4.1   985.6    0.00 
 126    5:30   0.06   55.1    50    4.0   254     5.5   985.7    0.00 
 126    5:40   0.10   56.7    48    3.1   228     3.7   985.9    0.00 
 126    5:50   0.13   59.3    44    1.7   231     2.2   986.0    0.00 
 126    6:00   0.17   61.4    42    1.2   229     2.6   986.0    0.00 
 126    6:10   0.20   63.6    40    1.7    71     3.9   986.2    0.00 
 126    6:20   0.23   62.4    42    2.3    53     3.4   986.3    0.00 
 126    6:30   0.27   63.2    41    0.8    64     2.2   986.4    0.00 
 126    6:40   0.31   64.5    39    1.1    52     2.6   986.5    0.00 
 126    6:50   0.34   65.0    38    1.3    32     3.4   986.6    0.00 
 126    7:00   0.38   65.4    38    0.7    10     2.3   986.6    0.00 
 126    7:10   0.41   66.8    36    1.0   107     2.5   986.5    0.00 
 126    7:20   0.45   67.4    35    1.3   130     3.5   986.5    0.00 
 126    7:30   0.48   68.1    34    1.7    89     4.5   986.5    0.00 
 126    7:40   0.52   68.2    33    1.6    82     3.6   986.6    0.00 
 126    7:50   0.55   69.0    33    1.5   119     4.2   986.6    0.00 
 126    8:00   0.59   69.1    33    3.0   143     6.0   986.7    0.00 
 126    8:10   0.62   70.3    31    1.0   116     2.7   986.7    0.00 
 126    8:20   0.65   71.2    30    2.1   165     5.6   986.7    0.00 
 126    8:30   0.68   71.1    30    2.4   127     5.2   986.8    0.00 
 126    8:40   0.71   72.0    28    2.4   137     5.3   986.8    0.00 
 126    8:50   0.73   72.6    27    3.0   118     6.7   986.9    0.00 
 126    9:00   0.76   73.2    26    2.5    70     6.4   986.9    0.00 
 126    9:10   0.79   73.5    26    3.6    92     7.5   987.0    0.00 
 126    9:20   0.81   74.5    25    4.5   118     8.3   987.0    0.00 
 126    9:30   0.83   74.6    25    4.5   133     8.7   987.0    0.00 
 126    9:40   0.85   74.8    25    4.8   120     8.0   987.0    0.00 
 126    9:50   0.87   75.1    24    5.3   120     9.5   987.0    0.00 
 126   10:00   0.89   76.4    24    5.5   123    10.0   986.9    0.00 
 126   10:10   0.91   76.8    23    4.2   104     8.3   986.8    0.00 
 126   10:20   0.92   77.2    23    4.4    78    10.6   986.8    0.00 
 126   10:30   0.93   77.4    22    4.4   108     9.1   986.8    0.00 
 126   10:40   0.95   78.3    21    3.8    98    10.4   986.7    0.00 
 126   10:50   0.95   78.6    20    5.8   102    10.7   986.6    0.00 
 126   11:00   0.96   78.6    20    3.9    30     8.0   986.5    0.00 
 126   11:10   0.97   79.5    19    4.1   113    10.3   986.4    0.00 
 126   11:20   0.97   79.9    18    3.3   134     7.8   986.4    0.00 
 126   11:30   0.98   80.3    17    6.6   117    14.0   986.3    0.00 
 126   11:40   0.98   80.4    17    5.2    90    13.3   986.2    0.00 
 126   11:50   0.98   81.2    17    7.9    86    15.9   986.1    0.00 
 126   12:00   0.98   81.5    17    7.9    89    14.2   986.0    0.00 
 126   12:10   0.97   80.7    17    5.8   128    13.4   985.8    0.00 
 126   12:20   0.97   81.6    16    8.3   111    14.0   985.7    0.00 
 126   12:30   0.96   81.7    16    4.7   113     9.0   985.6    0.00 
 126   12:40   0.94   82.4    16    6.7    88    12.2   985.5    0.00 
 126   12:50   0.95   82.1    16    5.7    83    11.8   985.4    0.00 
 126   13:00   0.94   82.9    16    6.5    86    11.4   985.3    0.00 
 126   13:10   0.93   83.9    15    1.9   108     8.1   985.2    0.00 
 126   13:20   0.91   84.3    15    6.3   103    10.7   985.0    0.00 

Return to Anza Borrego Desert State Park graphs page.


Western Regional Climate Center,wrcc@dri.edu